Weather History for Bradford, PA

Change the Weather History Date:

Tuesday, November 15, 2011

  Actual Average Record
Temperature  
Mean Temperature 50 °F 37 °F  
Max Temperature 53 °F 45 °F 63 °F (1990)
Min Temperature 48 °F 29 °F 5 °F (1967)
Degree Days  
Heating Degree Days 14 23  
Month to date heating degree days 310  
Since 1 July heating degree days 1303  
Cooling Degree Days 0 0  
Month to date cooling degree days 0  
Year to date cooling degree days 193  
Moisture  
Dew Point 47 °F    
Average Humidity 87    
Maximum Humidity 94    
Minimum Humidity 82    
Precipitation  
Precipitation 0.15 in 0.13 in 0.68 in (1968)
Month to date precipitation 1.77  
Year to date precipitation 39.07  
Sea Level Pressure  
Sea Level Pressure 29.84 in    
Wind  
Wind Speed 5 mph (SW)    
Max Wind Speed 13 mph    
Max Gust Speed 20 mph    
Visibility 9 miles    
Events Rain    
T = Trace of Precipitation, MM = Missing Value Source: NWS Daily Summary

Daily Weather History Graph

Daily Weather History Graph

Search for Another Location

Airport:

Trip Planner

Search our weather history database for the weather conditions in past years. The results will help you decide how hot, cold, wet, or windy it might be!

Date:

Astronomy

Nov. 15, 2011 Rise Set
Actual Time 7:03 AM EST 4:54 PM EST
Civil Twilight 6:33 AM EST 5:24 PM EST
Nautical Twilight 6:00 AM EST 5:57 PM EST
Astronomical Twilight 5:27 AM EST 6:30 PM EST
Moon 9:00 PM EST (11/15) 11:02 AM EST (11/15)
Length of Visible Light 10h 50m
Length of Day
9h 50m
Waning Gibbous, 79% of the Moon is Illuminated
Nov 15
Waning Gibbous
Nov 18
Last Quarter
Nov 25
New
Dec 2
First Quarter
Dec 10
Full

Hourly Weather History & Observations

Time (EST) Temp. Dew Point Humidity Pressure Visibility Wind Dir Wind Speed Gust Speed Precip Events Conditions
12:42 AM 53.6 °F 50.0 °F 88% 29.69 in 10.0 mi Variable 5.8 mph - 0.01 in   Overcast
12:53 AM 53.1 °F 48.9 °F 86% 29.70 in 10.0 mi WSW 8.1 mph - 0.01 in   Overcast
1:18 AM 51.8 °F 50.0 °F 94% 29.72 in 10.0 mi WSW 8.1 mph - N/A   Overcast
1:53 AM 52.0 °F 50.0 °F 93% 29.72 in 10.0 mi Variable 5.8 mph - N/A   Overcast
2:47 AM 51.8 °F 48.2 °F 88% 29.73 in 10.0 mi Variable 4.6 mph - N/A   Overcast
2:53 AM 52.0 °F 48.9 °F 89% 29.73 in 10.0 mi WSW 5.8 mph - N/A   Overcast
3:53 AM 52.0 °F 48.9 °F 89% 29.74 in 10.0 mi Variable 4.6 mph - N/A   Overcast
4:05 AM 51.8 °F 48.2 °F 88% 29.77 in 10.0 mi WSW 5.8 mph - N/A   Mostly Cloudy
4:29 AM 51.8 °F 48.2 °F 88% 29.78 in 10.0 mi SW 4.6 mph - N/A   Overcast
4:53 AM 52.0 °F 48.9 °F 89% 29.76 in 10.0 mi South 5.8 mph - N/A   Overcast
5:04 AM 51.8 °F 48.2 °F 88% 29.78 in 10.0 mi Variable 4.6 mph - N/A   Overcast
5:14 AM 51.8 °F 48.2 °F 88% 29.75 in 10.0 mi Variable 4.6 mph - N/A   Overcast
5:22 AM 51.8 °F 48.2 °F 88% 29.77 in 10.0 mi SW 4.6 mph - N/A   Overcast
5:26 AM 51.8 °F 48.2 °F 88% 29.77 in 10.0 mi SW 4.6 mph - N/A   Overcast
5:53 AM 51.1 °F 48.0 °F 89% 29.78 in 10.0 mi Calm Calm - N/A   Overcast
6:46 AM 51.8 °F 48.2 °F 88% 29.78 in 10.0 mi Calm Calm - N/A   Mostly Cloudy
7:53 AM 51.8 °F 48.2 °F 88% 29.83 in 10.0 mi WSW 3.5 mph - N/A   Overcast
8:07 AM 51.8 °F 48.2 °F 88% 29.83 in 10.0 mi West 4.6 mph - N/A   Overcast
8:53 AM 51.1 °F 48.0 °F 89% 29.85 in 10.0 mi SW 5.8 mph - N/A   Overcast
9:19 AM 51.8 °F 46.4 °F 82% 29.85 in 10.0 mi WSW 3.5 mph - N/A   Overcast
9:53 AM 51.1 °F 46.9 °F 86% 29.85 in 10.0 mi Variable 3.5 mph - N/A   Overcast
10:44 AM 51.8 °F 48.2 °F 88% 29.86 in 10.0 mi WNW 5.8 mph - N/A   Overcast
10:53 AM 52.0 °F 48.0 °F 86% 29.86 in 10.0 mi West 5.8 mph - N/A   Overcast
11:02 AM 51.8 °F 48.2 °F 88% 29.87 in 10.0 mi WNW 5.8 mph - N/A   Overcast
11:10 AM 51.8 °F 46.4 °F 82% 29.86 in 10.0 mi Calm Calm - 0.00 in Rain Light Rain
11:22 AM 51.8 °F 46.4 °F 82% 29.85 in 10.0 mi Calm Calm - 0.00 in   Overcast
11:29 AM 51.8 °F 46.4 °F 82% 29.86 in 10.0 mi SW 5.8 mph - 0.00 in Rain Light Rain
11:42 AM 51.8 °F 46.4 °F 82% 29.86 in 1.8 mi Variable 4.6 mph - 0.04 in Rain Rain
11:53 AM 50.0 °F 46.9 °F 89% 29.87 in 1.8 mi SW 9.2 mph - 0.08 in Rain Rain
12:03 PM 50.0 °F 46.4 °F 87% 29.87 in 3.0 mi SW 12.7 mph 19.6 mph 0.02 in Rain Light Rain
12:16 PM 50.0 °F 46.4 °F 87% 29.86 in 5.0 mi SW 9.2 mph - 0.03 in Rain Light Rain
12:38 PM 50.0 °F 46.4 °F 87% 29.85 in 6.0 mi SW 6.9 mph - 0.06 in Rain Light Rain
12:53 PM 50.0 °F 46.0 °F 86% 29.85 in 10.0 mi SW 9.2 mph - 0.06 in   Overcast
1:01 PM 50.0 °F 46.4 °F 87% 29.84 in 6.0 mi Variable 5.8 mph - 0.00 in Rain Light Rain
1:53 PM 50.0 °F 46.0 °F 86% 29.86 in 10.0 mi WSW 5.8 mph - 0.00 in   Overcast
2:02 PM 50.0 °F 46.4 °F 87% 29.86 in 10.0 mi SW 6.9 mph - N/A   Overcast
2:43 PM 50.0 °F 46.4 °F 87% 29.86 in 10.0 mi WSW 8.1 mph - N/A   Overcast
2:53 PM 50.0 °F 46.0 °F 86% 29.86 in 10.0 mi Variable 4.6 mph - N/A   Overcast
3:53 PM 48.9 °F 45.0 °F 86% 29.88 in 10.0 mi SW 9.2 mph - N/A   Overcast
4:33 PM 48.2 °F 44.6 °F 87% 29.88 in 10.0 mi Variable 6.9 mph - N/A   Scattered Clouds
4:43 PM 48.2 °F 44.6 °F 87% 29.88 in 10.0 mi Variable 4.6 mph - N/A   Mostly Cloudy
4:53 PM 48.9 °F 45.0 °F 86% 29.89 in 10.0 mi SW 4.6 mph - N/A   Mostly Cloudy
5:22 PM 48.2 °F 44.6 °F 87% 29.89 in 10.0 mi Calm Calm - N/A   Mostly Cloudy
5:53 PM 48.0 °F 44.1 °F 86% 29.91 in 10.0 mi SSW 5.8 mph - N/A   Mostly Cloudy
6:36 PM 48.2 °F 44.6 °F 87% 29.92 in 10.0 mi SSW 6.9 mph - N/A   Overcast
6:53 PM 48.9 °F 45.0 °F 86% 29.92 in 10.0 mi SSW 4.6 mph - N/A   Overcast
7:12 PM 48.2 °F 44.6 °F 87% 29.91 in 10.0 mi SSW 5.8 mph - N/A   Overcast
7:29 PM 48.2 °F 44.6 °F 87% 29.91 in 10.0 mi Variable 4.6 mph - N/A   Overcast
7:36 PM 48.2 °F 44.6 °F 87% 29.91 in 10.0 mi Calm Calm - N/A   Overcast
7:53 PM 48.0 °F 45.0 °F 89% 29.92 in 10.0 mi SW 5.8 mph - N/A   Overcast
8:53 PM 48.0 °F 44.1 °F 86% 29.92 in 10.0 mi SW 8.1 mph - N/A   Overcast
9:53 PM 48.0 °F 44.1 °F 86% 29.92 in 10.0 mi SW 5.8 mph - N/A   Overcast
10:43 PM 48.2 °F 44.6 °F 87% 29.92 in 10.0 mi SSW 4.6 mph - N/A   Overcast
10:53 PM 48.0 °F 44.1 °F 86% 29.92 in 10.0 mi SW 5.8 mph - N/A   Overcast
11:17 PM 48.2 °F 44.6 °F 87% 29.91 in 10.0 mi SSW 3.5 mph - N/A   Overcast
11:36 PM 48.2 °F 44.6 °F 87% 29.91 in 10.0 mi SW 3.5 mph - N/A   Overcast
11:53 PM 48.0 °F 45.0 °F 89% 29.91 in 10.0 mi SSW 3.5 mph - N/A   Overcast